When you browse on this site, cookies collect data to enhance your experience and personalize the content and advertising you see.
Visit our Privacy Policy to learn more. By continuing to use the site, you agree to this use of cookies and data.

Meteo pe oră la Zhlobin

Astăzi, 5 August, Miercuri

Timp Temperatura Precipitaţii Vânt Presiune Umiditate
00:00 +18°C° 0 mm 3 m/s 749 mmHg 79%
01:00 +18°C° 0 mm 3 m/s 749 mmHg 80%
02:00 +17°C° 0 mm 3 m/s 749 mmHg 82%
03:00 +17°C° 0 mm 3 m/s 749 mmHg 81%
04:00 +17°C° 0 mm 3 m/s 749 mmHg 81%
05:00 +17°C° 0 mm 3 m/s 749 mmHg 81%
06:00 +18°C° 0 mm 3 m/s 750 mmHg 77%
07:00 +20°C° 0 mm 3 m/s 750 mmHg 72%
08:00 +22°C° 0 mm 3 m/s 750 mmHg 68%
09:00 +24°C° 0 mm 3 m/s 750 mmHg 62%
10:00 +26°C° 0 mm 3 m/s 751 mmHg 57%
11:00 +28°C° 0 mm 2 m/s 751 mmHg 52%
12:00 +29°C° 0 mm 2 m/s 751 mmHg 49%
13:00 +29°C° 0 mm 2 m/s 751 mmHg 47%
14:00 +30°C° 0 mm 2 m/s 751 mmHg 44%
15:00 +30°C° 0 mm 2 m/s 751 mmHg 47%
16:00 +30°C° 0 mm 1 m/s 751 mmHg 50%
17:00 +29°C° 0 mm 1 m/s 751 mmHg 54%
18:00 +27°C° 0 mm 1 m/s 751 mmHg 58%
19:00 +25°C° 0 mm 1 m/s 751 mmHg 63%
20:00 +23°C° 0 mm 1 m/s 752 mmHg 67%
21:00 +22°C° 0 mm 1 m/s 752 mmHg 73%
22:00 +21°C° 0 mm 1 m/s 752 mmHg 78%
23:00 +21°C° 0 mm 1 m/s 752 mmHg 84%

Mâine, 6 August, Joi

Timp Temperatura Precipitaţii Vânt Presiune Umiditate
00:00 +20°C° 0 mm 1 m/s 753 mmHg 85%
01:00 +20°C° 0 mm 1 m/s 753 mmHg 87%
02:00 +20°C° 0 mm 1 m/s 753 mmHg 89%
03:00 +20°C° 0 mm 1 m/s 753 mmHg 90%
04:00 +20°C° 0 mm 1 m/s 753 mmHg 91%
05:00 +19°C° 0 mm 1 m/s 753 mmHg 92%
06:00 +20°C° 0 mm 2 m/s 754 mmHg 88%
07:00 +21°C° 0 mm 2 m/s 754 mmHg 84%
08:00 +24°C° 0 mm 2 m/s 754 mmHg 80%
09:00 +25°C° 0.1 mm 2 m/s 755 mmHg 75%
10:00 +26°C° 0.1 mm 2 m/s 755 mmHg 71%
11:00 +27°C° 0.1 mm 2 m/s 755 mmHg 67%
12:00 +28°C° 0.2 mm 3 m/s 755 mmHg 66%
13:00 +28°C° 0.2 mm 3 m/s 755 mmHg 64%
14:00 +28°C° 0.2 mm 3 m/s 755 mmHg 63%
15:00 +28°C° 0.1 mm 3 m/s 755 mmHg 65%
16:00 +27°C° 0.1 mm 4 m/s 755 mmHg 67%
17:00 +27°C° 0.1 mm 4 m/s 755 mmHg 69%
18:00 +25°C° 0 mm 4 m/s 755 mmHg 73%
19:00 +24°C° 0 mm 3 m/s 755 mmHg 78%
20:00 +21°C° 0 mm 3 m/s 756 mmHg 83%
21:00 +20°C° 0 mm 3 m/s 756 mmHg 84%
22:00 +19°C° 0 mm 3 m/s 756 mmHg 86%
23:00 +18°C° 0 mm 3 m/s 756 mmHg 88%

Poimâine, 7 August, Vineri

Timp Temperatura Precipitaţii Vânt Presiune Umiditate
00:00 +17°C° 0 mm 3 m/s 756 mmHg 89%
01:00 +17°C° 0 mm 3 m/s 756 mmHg 89%
02:00 +16°C° 0 mm 3 m/s 757 mmHg 90%
03:00 +16°C° 0 mm 3 m/s 757 mmHg 89%
04:00 +14°C° 0 mm 3 m/s 757 mmHg 88%
05:00 +14°C° 0 mm 3 m/s 757 mmHg 88%
06:00 +17°C° 0 mm 3 m/s 757 mmHg 82%
07:00 +19°C° 0 mm 3 m/s 757 mmHg 77%
08:00 +20°C° 0 mm 3 m/s 758 mmHg 71%
09:00 +22°C° 0 mm 3 m/s 758 mmHg 66%
10:00 +24°C° 0 mm 3 m/s 758 mmHg 60%
11:00 +26°C° 0 mm 3 m/s 758 mmHg 55%
12:00 +26°C° 0 mm 3 m/s 757 mmHg 54%
13:00 +27°C° 0 mm 3 m/s 757 mmHg 53%
14:00 +27°C° 0 mm 4 m/s 757 mmHg 53%
15:00 +27°C° 0 mm 4 m/s 757 mmHg 56%
16:00 +26°C° 0 mm 4 m/s 757 mmHg 59%
17:00 +26°C° 0 mm 4 m/s 756 mmHg 62%
18:00 +24°C° 0 mm 3 m/s 756 mmHg 69%
19:00 +22°C° 0 mm 3 m/s 756 mmHg 76%
20:00 +20°C° 0 mm 2 m/s 756 mmHg 82%
21:00 +19°C° 0 mm 2 m/s 756 mmHg 86%
22:00 +19°C° 0 mm 2 m/s 756 mmHg 89%
23:00 +18°C° 0 mm 2 m/s 756 mmHg 92%

8 August, Sâmbătă

Timp Temperatura Precipitaţii Vânt Presiune Umiditate
00:00 +18°C° 0 mm 2 m/s 756 mmHg 93%
01:00 +17°C° 0 mm 2 m/s 756 mmHg 93%
02:00 +17°C° 0 mm 2 m/s 756 mmHg 94%
03:00 +17°C° 0 mm 2 m/s 756 mmHg 94%
04:00 +17°C° 0 mm 2 m/s 756 mmHg 94%
05:00 +16°C° 0 mm 2 m/s 756 mmHg 94%
06:00 +18°C° 0 mm 2 m/s 756 mmHg 88%
07:00 +20°C° 0 mm 2 m/s 756 mmHg 82%
08:00 +21°C° 0 mm 2 m/s 756 mmHg 75%
09:00 +24°C° 0.1 mm 2 m/s 756 mmHg 70%
10:00 +25°C° 0.1 mm 1 m/s 756 mmHg 66%
11:00 +26°C° 0.1 mm 1 m/s 756 mmHg 61%
12:00 +26°C° 0.6 mm 1 m/s 755 mmHg 63%
13:00 +26°C° 0.6 mm 2 m/s 755 mmHg 66%
14:00 +26°C° 0.6 mm 2 m/s 754 mmHg 69%
15:00 +25°C° 0.6 mm 2 m/s 754 mmHg 70%
16:00 +25°C° 0.6 mm 2 m/s 753 mmHg 71%
17:00 +25°C° 0.6 mm 2 m/s 753 mmHg 72%
18:00 +24°C° 0.1 mm 2 m/s 753 mmHg 78%
19:00 +22°C° 0.1 mm 1 m/s 753 mmHg 83%
20:00 +21°C° 0.1 mm 1 m/s 753 mmHg 89%
21:00 +20°C° 0 mm 1 m/s 753 mmHg 90%
22:00 +19°C° 0 mm 1 m/s 753 mmHg 91%
23:00 +19°C° 0 mm 1 m/s 753 mmHg 92%

9 August, Duminică

Timp Temperatura Precipitaţii Vânt Presiune Umiditate
00:00 +18°C° 0 mm 1 m/s 753 mmHg 93%
01:00 +18°C° 0 mm 1 m/s 753 mmHg 93%
02:00 +18°C° 0 mm 1 m/s 752 mmHg 94%
03:00 +18°C° 0 mm 1 m/s 752 mmHg 94%
04:00 +16°C° 0 mm 1 m/s 752 mmHg 94%
05:00 +16°C° 0 mm 1 m/s 752 mmHg 95%
06:00 +19°C° 0 mm 1 m/s 752 mmHg 91%
07:00 +20°C° 0 mm 1 m/s 752 mmHg 86%
08:00 +20°C° 0 mm 2 m/s 752 mmHg 82%
09:00 +23°C° 0.3 mm 2 m/s 752 mmHg 76%
10:00 +24°C° 0.3 mm 2 m/s 752 mmHg 70%
11:00 +25°C° 0.3 mm 2 m/s 752 mmHg 64%
12:00 +26°C° 0.2 mm 2 m/s 752 mmHg 61%
13:00 +26°C° 0.2 mm 2 m/s 751 mmHg 57%
14:00 +27°C° 0.2 mm 2 m/s 751 mmHg 53%
15:00 +27°C° 0 mm 2 m/s 751 mmHg 55%
16:00 +27°C° 0 mm 2 m/s 751 mmHg 56%
17:00 +26°C° 0 mm 2 m/s 750 mmHg 57%
18:00 +24°C° 0 mm 2 m/s 750 mmHg 63%
19:00 +23°C° 0 mm 2 m/s 751 mmHg 68%
20:00 +20°C° 0 mm 2 m/s 751 mmHg 73%
21:00 +20°C° 0 mm 1 m/s 751 mmHg 75%
22:00 +19°C° 0 mm 1 m/s 751 mmHg 76%
23:00 +19°C° 0 mm 1 m/s 751 mmHg 77%

10 August, Luni

Timp Temperatura Precipitaţii Vânt Presiune Umiditate
00:00 +18°C° 0 mm 1 m/s 751 mmHg 79%
01:00 +18°C° 0 mm 1 m/s 751 mmHg 81%
02:00 +18°C° 0 mm 1 m/s 751 mmHg 83%
03:00 +16°C° 0 mm 1 m/s 751 mmHg 85%
04:00 +16°C° 0 mm 1 m/s 751 mmHg 87%
05:00 +16°C° 0 mm 1 m/s 751 mmHg 89%
06:00 +18°C° 0 mm 2 m/s 751 mmHg 85%
07:00 +19°C° 0 mm 2 m/s 751 mmHg 81%
08:00 +21°C° 0 mm 2 m/s 751 mmHg 76%
09:00 +22°C° 0 mm 3 m/s 752 mmHg 71%
10:00 +25°C° 0 mm 3 m/s 752 mmHg 66%
11:00 +26°C° 0 mm 3 m/s 752 mmHg 60%
12:00 +26°C° 0.2 mm 3 m/s 751 mmHg 60%
13:00 +27°C° 0.2 mm 3 m/s 751 mmHg 60%
14:00 +27°C° 0.2 mm 3 m/s 751 mmHg 60%
15:00 +27°C° 0.4 mm 3 m/s 751 mmHg 62%
16:00 +26°C° 0.4 mm 3 m/s 751 mmHg 64%
17:00 +26°C° 0.4 mm 3 m/s 751 mmHg 66%
18:00 +24°C° 0 mm 2 m/s 751 mmHg 70%
19:00 +21°C° 0 mm 2 m/s 751 mmHg 74%
20:00 +19°C° 0 mm 2 m/s 751 mmHg 78%
21:00 +18°C° 0 mm 2 m/s 752 mmHg 80%
22:00 +18°C° 0 mm 2 m/s 752 mmHg 82%
23:00 +18°C° 0 mm 1 m/s 752 mmHg 84%
Arată mai mult